sat.trackr.live / text

‹ back to catalog

STARLINK-30258

NORAD 57608 · 2023-119G

PAYLOAD ACTIVE UNKNOWN

§ Identity

Operator
Country
US
Launch date
2023-08-11
Launch site
AFETR
Launch vehicle
Mass (kg)
RCS (m²)

Purposes: comms

External: N2YO · Heavens-Above · Gunter

§ Orbital elements

Epoch: 2026-05-25T00:13:23.778336Z

Period
94.27 min
Inclination
43.0073°
Eccentricity
0.0001022
Mean motion
15.27579517 rev/d
Perigee alt
482.3 km
Apogee alt
483.8 km
Semi-major
6,861.2 km
B*
5.4395e-5
RAAN
10.9732°
Arg perigee
268.2548°
Mean anomaly
91.8186°
Rev number
15,475

§ Raw data

STARLINK-302581 57608U 23119G   26145.00930299  .00001235  00000+0  54395-4 0  99922 57608  43.0073  10.9732 0001022 268.2548  91.8186 15.27579517154751

JSON: /api/v1/satellites/57608 · /tle

For live sub-satellite position, see the globe view (requires WebGL).

§ Visibility from observer

Set your observer location to see the next 7 days of passes ≥ 10°. The values pass through the URL so the page stays shareable.

No JS? Fill the form by hand. The geolocation button needs JavaScript.